| time (UTC) | temp F | wind direction | speed knots | gust knots | rain 1hr in | rain 24hr in | rain mn in | humidity % | barometer mb |
| 20260906123156 | 87 | 145 | 7.0 | 11.3 | 0.00 | 0.00 | 0.00 | 64 | 1014.3 |
| 20260906122655 | 87 | 199 | 10.4 | 12.2 | 0.00 | 0.00 | 0.00 | 65 | 1014.3 |
| 20260906122151 | 86 | 194 | 6.1 | 9.6 | 0.00 | 0.00 | 0.00 | 66 | 1014.3 |
| 20260906121647 | 87 | 204 | 7.0 | 8.7 | 0.00 | 0.00 | 0.00 | 66 | 1014.5 |
| 20260906121144 | 87 | 203 | 8.7 | 9.6 | 0.00 | 0.00 | 0.00 | 64 | 1014.5 |
| 20260906120639 | 87 | 138 | 5.2 | 8.7 | 0.00 | 0.00 | 0.00 | 65 | 1014.3 |
| 20260906120137 | 87 | 154 | 7.8 | 8.7 | 0.00 | 0.00 | 0.00 | 67 | 1014.2 |
| 20260906115637 | 87 | 160 | 3.5 | 6.1 | 0.00 | 0.00 | 0.00 | 66 | 1014.3 |
| 20260906115132 | 86 | 153 | 6.1 | 7.8 | 0.00 | 0.00 | 0.00 | 67 | 1014.3 |
| 20260906114625 | 86 | 166 | 5.2 | 7.0 | 0.00 | 0.00 | 0.00 | 67 | 1014.4 |
| 20260906114121 | 86 | 143 | 7.8 | 8.7 | 0.00 | 0.00 | 0.00 | 69 | 1014.2 |
| 20260906113620 | 87 | 190 | 5.2 | 7.8 | 0.00 | 0.00 | 0.00 | 67 | 1014.5 |
| 20260906113115 | 86 | 170 | 4.3 | 7.0 | 0.00 | 0.00 | 0.00 | 69 | 1014.5 |
| 20260906112614 | 86 | 170 | 3.5 | 7.8 | 0.00 | 0.00 | 0.00 | 69 | 1014.6 |
| 20260906112111 | 85 | 174 | 6.1 | 9.6 | 0.00 | 0.00 | 0.00 | 71 | 1014.6 |
| 20260906111610 | 85 | 206 | 8.7 | 12.2 | 0.00 | 0.00 | 0.00 | 71 | 1014.6 |
| 20260906111106 | 87 | 144 | 7.8 | 12.2 | 0.00 | 0.00 | 0.00 | 69 | 1014.6 |
| 20260906110606 | 86 | 188 | 7.8 | 9.6 | 0.00 | 0.00 | 0.00 | 71 | 1014.6 |
| 20260906110100 | 86 | 148 | 7.0 | 9.6 | 0.00 | 0.00 | 0.00 | 71 | 1014.6 |
| 20260906105554 | 86 | 203 | 9.6 | 11.3 | 0.00 | 0.00 | 0.00 | 71 | 1014.7 |
| 20260906105051 | 85 | 161 | 5.2 | 8.7 | 0.00 | 0.00 | 0.00 | 73 | 1014.5 |
| 20260906104549 | 85 | 150 | 7.0 | 9.6 | 0.00 | 0.00 | 0.00 | 73 | 1014.5 |
| 20260906104044 | 86 | 198 | 7.0 | 9.6 | 0.00 | 0.00 | 0.00 | 73 | 1014.6 |
| 20260906103542 | 85 | 167 | 9.6 | 11.3 | 0.00 | 0.00 | 0.00 | 74 | 1014.8 |
| 20260906103038 | 86 | 212 | 8.7 | 11.3 | 0.00 | 0.00 | 0.00 | 73 | 1014.5 |
| 20260906102537 | 86 | 173 | 7.0 | 9.6 | 0.00 | 0.00 | 0.00 | 73 | 1014.6 |
| 20260906102033 | 86 | 164 | 8.7 | 11.3 | 0.00 | 0.00 | 0.00 | 71 | 1014.6 |
| 20260906101527 | 84 | 137 | 7.8 | 9.6 | 0.00 | 0.00 | 0.00 | 74 | 1014.5 |
| 20260906101022 | 85 | 145 | 9.6 | 11.3 | 0.00 | 0.00 | 0.00 | 73 | 1014.5 |
| 20260906100518 | 86 | 127 | 5.2 | 9.6 | 0.00 | 0.00 | 0.00 | 72 | 1014.6 |
| 20260906100012 | 86 | 133 | 6.1 | 8.7 | 0.00 | 0.00 | 0.00 | 69 | 1014.9 |
| 20260906095507 | 85 | 207 | 5.2 | 9.6 | 0.00 | 0.00 | 0.00 | 71 | 1014.7 |
| 20260906095003 | 86 | 132 | 5.2 | 9.6 | 0.00 | 0.00 | 0.00 | 69 | 1014.5 |
| 20260906094501 | 86 | 123 | 7.8 | 7.8 | 0.00 | 0.00 | 0.00 | 68 | 1014.5 |
| 20260906093957 | 87 | 196 | 4.3 | 7.0 | 0.00 | 0.00 | 0.00 | 68 | 1014.8 |
| 20260906093453 | 86 | 140 | 4.3 | 6.1 | 0.00 | 0.00 | 0.00 | 66 | 1014.7 |
| 20260906092954 | 86 | 165 | 6.1 | 8.7 | 0.00 | 0.00 | 0.00 | 69 | 1014.8 |
| 20260906092454 | 85 | 173 | 5.2 | 8.7 | 0.00 | 0.00 | 0.00 | 70 | 1014.6 |
| 20260906091949 | 87 | 152 | 7.8 | 9.6 | 0.00 | 0.00 | 0.00 | 69 | 1014.6 |
| 20260906091444 | 86 | 131 | 7.8 | 9.6 | 0.00 | 0.00 | 0.00 | 70 | 1014.8 |
| 20260906090941 | 85 | 190 | 7.0 | 8.7 | 0.00 | 0.00 | 0.00 | 70 | 1014.7 |
| 20260906090436 | 85 | 154 | 6.1 | 8.7 | 0.00 | 0.00 | 0.00 | 71 | 1014.9 |
| 20260906085930 | 85 | 199 | 7.8 | 11.3 | 0.00 | 0.00 | 0.00 | 71 | 1014.9 |
| 20260906085429 | 85 | 173 | 7.8 | 8.7 | 0.00 | 0.00 | 0.00 | 69 | 1014.8 |
| 20260906084928 | 85 | 165 | 6.1 | 7.8 | 0.00 | 0.00 | 0.00 | 68 | 1014.6 |
| 20260906084424 | 86 | 174 | 6.1 | 8.7 | 0.00 | 0.00 | 0.00 | 67 | 1014.8 |
| 20260906083922 | 85 | 188 | 5.2 | 7.8 | 0.00 | 0.00 | 0.00 | 67 | 1014.8 |
| 20260906083418 | 86 | 135 | 4.3 | 7.8 | 0.00 | 0.00 | 0.00 | 67 | 1014.9 |
| 20260906082917 | 85 | 185 | 4.3 | 8.7 | 0.00 | 0.00 | 0.00 | 67 | 1014.8 |
| 20260906082413 | 85 | 135 | 7.0 | 7.8 | 0.00 | 0.00 | 0.00 | 68 | 1014.7 |
| 20260906081909 | 85 | 144 | 4.3 | 7.8 | 0.00 | 0.00 | 0.00 | 70 | 1015.0 |
| 20260906081404 | 85 | 213 | 7.8 | 7.8 | 0.00 | 0.00 | 0.00 | 71 | 1014.8 |
| 20260906080900 | 85 | 142 | 3.5 | 7.8 | 0.00 | 0.00 | 0.00 | 72 | 1014.9 |
| 20260906080356 | 84 | 131 | 5.2 | 7.8 | 0.00 | 0.00 | 0.00 | 72 | 1015.1 |
| 20260906075855 | 85 | 141 | 4.3 | 7.8 | 0.00 | 0.00 | 0.00 | 74 | 1015.1 |
| 20260906075351 | 84 | 160 | 4.3 | 7.0 | 0.00 | 0.00 | 0.00 | 74 | 1015.1 |
| 20260906074846 | 85 | 204 | 6.1 | 7.8 | 0.00 | 0.00 | 0.00 | 73 | 1015.0 |
| 20260906074346 | 85 | 209 | 4.3 | 7.0 | 0.00 | 0.00 | 0.00 | 74 | 1015.1 |
| 20260906073844 | 85 | 191 | 6.1 | 7.8 | 0.00 | 0.00 | 0.00 | 72 | 1015.2 |
| 20260906073339 | 84 | 212 | 6.1 | 7.0 | 0.00 | 0.00 | 0.00 | 73 | 1015.0 |
| 20260906072836 | 85 | 145 | 2.6 | 4.3 | 0.00 | 0.00 | 0.00 | 73 | 1014.9 |
| 20260906072332 | 84 | 169 | 3.5 | 6.1 | 0.00 | 0.00 | 0.00 | 73 | 1014.8 |
| 20260906071828 | 85 | 175 | 5.2 | 6.1 | 0.00 | 0.00 | 0.00 | 71 | 1014.9 |
| 20260906071328 | 84 | 193 | 4.3 | 6.1 | 0.00 | 0.00 | 0.00 | 72 | 1014.8 |
| 20260906070824 | 84 | 166 | 4.3 | 7.0 | 0.00 | 0.00 | 0.00 | 74 | 1014.9 |
| 20260906070319 | 85 | 196 | 5.2 | 7.0 | 0.00 | 0.00 | 0.00 | 73 | 1014.9 |
| 20260906065814 | 86 | 134 | 4.3 | 7.8 | 0.00 | 0.00 | 0.00 | 71 | 1014.9 |
| 20260906065309 | 86 | 201 | 0.9 | 4.3 | 0.00 | 0.00 | 0.00 | 68 | 1014.7 |
| 20260906064805 | 87 | 143 | 0.9 | 2.6 | 0.00 | 0.00 | 0.00 | 67 | 1014.9 |
| 20260906064301 | 86 | 123 | 2.6 | 2.6 | 0.00 | 0.00 | 0.00 | 67 | 1014.6 |
| 20260906063755 | 86 | 102 | 0.9 | 2.6 | 0.00 | 0.00 | 0.00 | 66 | 1014.9 |
| 20260906063251 | 86 | 259 | 0.9 | 2.6 | 0.00 | 0.00 | 0.00 | 67 | 1014.9 |
| 20260906062746 | 86 | 279 | 1.7 | 2.6 | 0.00 | 0.00 | 0.00 | 67 | 1015.0 |
| 20260906062245 | 84 | 143 | 0.9 | 4.3 | 0.00 | 0.00 | 0.00 | 68 | 1014.9 |
| 20260906061741 | 85 | 309 | 1.7 | 1.7 | 0.00 | 0.00 | 0.00 | 70 | 1014.9 |
| 20260906061237 | 83 | 168 | 1.7 | 2.6 | 0.00 | 0.00 | 0.00 | 71 | 1014.8 |
| 20260906060732 | 83 | 186 | 2.6 | 4.3 | 0.00 | 0.00 | 0.00 | 72 | 1014.8 |
| 20260906060230 | 82 | 176 | 1.7 | 4.3 | 0.00 | 0.00 | 0.00 | 74 | 1014.7 |
| 20260906055725 | 82 | 192 | 1.7 | 2.6 | 0.00 | 0.00 | 0.00 | 76 | 1014.3 |
| 20260906055220 | 83 | 204 | 3.5 | 4.3 | 0.00 | 0.00 | 0.00 | 76 | 1014.2 |
| 20260906054715 | 83 | 192 | 4.3 | 5.2 | 0.00 | 0.00 | 0.00 | 75 | 1014.5 |
| 20260906054210 | 84 | 151 | 1.7 | 2.6 | 0.00 | 0.00 | 0.00 | 72 | 1014.2 |
| 20260906053707 | 83 | 150 | 1.7 | 2.6 | 0.00 | 0.00 | 0.00 | 70 | 1014.4 |
| 20260906053202 | 84 | 116 | 1.7 | 2.6 | 0.00 | 0.00 | 0.00 | 69 | 1014.0 |
| 20260906052657 | 84 | 124 | 0.9 | 1.7 | 0.00 | 0.00 | 0.00 | 71 | 1014.4 |
| 20260906052153 | 83 | 148 | 0.0 | 0.0 | 0.00 | 0.00 | 0.00 | 73 | 1014.2 |
| 20260906051650 | 82 | 131 | 0.0 | 0.0 | 0.00 | 0.00 | 0.00 | 77 | 1014.2 |
| 20260906051149 | 80 | 129 | 0.0 | 1.7 | 0.00 | 0.00 | 0.00 | 81 | 1014.4 |
| 20260906050645 | 80 | 154 | 0.0 | 0.0 | 0.00 | 0.00 | 0.00 | 83 | 1014.2 |
| 20260906050140 | 79 | 153 | 0.0 | 0.9 | 0.00 | 0.00 | 0.00 | 85 | 1014.4 |
| 20260906045638 | 78 | 108 | 0.9 | 1.7 | 0.00 | 0.00 | 0.00 | 86 | 1014.4 |
| 20260906045133 | 78 | 278 | 3.5 | 4.3 | 0.00 | 0.00 | 0.00 | 86 | 1014.4 |
| 20260906044630 | 78 | 266 | 1.7 | 2.6 | 0.00 | 0.00 | 0.00 | 87 | 1014.5 |
| 20260906044125 | 77 | 296 | 2.6 | 2.6 | 0.00 | 0.00 | 0.00 | 87 | 1014.5 |
| 20260906043621 | 77 | 187 | 0.9 | 4.3 | 0.00 | 0.00 | 0.00 | 88 | 1014.6 |
| 20260906043116 | 77 | 266 | 3.5 | 4.3 | 0.00 | 0.00 | 0.00 | 88 | 1014.3 |
| 20260906042615 | 77 | 233 | 1.7 | 2.6 | 0.00 | 0.00 | 0.00 | 88 | 1014.2 |
| 20260906042110 | 77 | 174 | 0.9 | 0.9 | 0.00 | 0.00 | 0.00 | 88 | 1014.5 |
| 20260906041606 | 77 | 277 | 1.7 | 1.7 | 0.00 | 0.00 | 0.00 | 88 | 1014.5 |
| 20260906041101 | 77 | 313 | 1.7 | 2.6 | 0.00 | 0.00 | 0.00 | 88 | 1014.3 |
| 20260906040556 | 77 | 288 | 2.6 | 2.6 | 0.00 | 0.00 | 0.00 | 88 | 1014.3 |
| 20260906040051 | 77 | 200 | 0.9 | 0.9 | 0.00 | 0.00 | 0.00 | 88 | 1014.4 |
| 20260906035546 | 76 | 77 | 0.9 | 1.7 | 0.00 | 0.00 | 0.00 | 88 | 1014.5 |
| 20260906035043 | 76 | 260 | 1.7 | 1.7 | 0.00 | 0.00 | 0.00 | 88 | 1014.3 |
| 20260906034542 | 76 | 292 | 2.6 | 2.6 | 0.00 | 0.00 | 0.00 | 88 | 1014.4 |
| 20260906034037 | 76 | 316 | 2.6 | 4.3 | 0.00 | 0.00 | 0.00 | 88 | 1014.3 |
| 20260906033532 | 77 | 312 | 3.5 | 5.2 | 0.00 | 0.00 | 0.00 | 87 | 1014.3 |
| 20260906033028 | 77 | 275 | 3.5 | 4.3 | 0.00 | 0.00 | 0.00 | 86 | 1014.3 |
| 20260906032525 | 77 | 306 | 2.6 | 5.2 | 0.00 | 0.00 | 0.00 | 86 | 1014.1 |
| 20260906032024 | 77 | 297 | 3.5 | 4.3 | 0.00 | 0.00 | 0.00 | 85 | 1014.3 |
| 20260906031520 | 77 | 289 | 2.6 | 5.2 | 0.00 | 0.00 | 0.00 | 85 | 1014.3 |
| 20260906031015 | 77 | 282 | 1.7 | 2.6 | 0.00 | 0.00 | 0.00 | 85 | 1014.0 |
| 20260906030514 | 77 | 329 | 1.7 | 1.7 | 0.00 | 0.00 | 0.00 | 85 | 1014.1 |
| 20260906030009 | 77 | 336 | 1.7 | 1.7 | 0.00 | 0.00 | 0.00 | 85 | 1013.9 |
| 20260906025508 | 77 | 294 | 2.6 | 2.6 | 0.00 | 0.00 | 0.00 | 85 | 1014.0 |
| 20260906025007 | 77 | 302 | 3.5 | 4.3 | 0.00 | 0.00 | 0.00 | 85 | 1014.1 |
| 20260906024502 | 77 | 277 | 3.5 | 4.3 | 0.00 | 0.00 | 0.00 | 86 | 1014.1 |
| 20260906023956 | 77 | 311 | 4.3 | 5.2 | 0.00 | 0.00 | 0.00 | 86 | 1013.9 |
| 20260906023452 | 77 | 301 | 4.3 | 6.1 | 0.00 | 0.00 | 0.00 | 85 | 1014.0 |
| 20260906022947 | 77 | 295 | 2.6 | 6.1 | 0.00 | 0.00 | 0.00 | 86 | 1014.0 |
| 20260906022442 | 77 | 277 | 4.3 | 5.2 | 0.00 | 0.00 | 0.00 | 86 | 1014.1 |
| 20260906021937 | 77 | 287 | 3.5 | 6.1 | 0.00 | 0.00 | 0.00 | 86 | 1014.2 |
| 20260906021432 | 77 | 297 | 4.3 | 6.1 | 0.00 | 0.00 | 0.00 | 87 | 1014.0 |
| 20260906020926 | 77 | 323 | 3.5 | 5.2 | 0.00 | 0.00 | 0.00 | 88 | 1013.8 |
| 20260906020421 | 77 | 284 | 3.5 | 6.1 | 0.00 | 0.00 | 0.00 | 89 | 1014.1 |
| 20260906015915 | 77 | 296 | 4.3 | 5.2 | 0.00 | 0.00 | 0.00 | 89 | 1013.6 |
| 20260906015415 | 77 | 319 | 2.6 | 2.6 | 0.00 | 0.00 | 0.00 | 89 | 1013.8 |
| 20260906014909 | 77 | 344 | 1.7 | 1.7 | 0.00 | 0.00 | 0.00 | 89 | 1013.8 |
| 20260906014409 | 77 | 328 | 2.6 | 2.6 | 0.00 | 0.00 | 0.00 | 89 | 1013.7 |
| 20260906013905 | 77 | 346 | 2.6 | 2.6 | 0.00 | 0.00 | 0.00 | 89 | 1013.9 |
| 20260906013401 | 77 | 0 | 1.7 | 2.6 | 0.00 | 0.00 | 0.00 | 89 | 1013.7 |
| 20260906012856 | 77 | 351 | 1.7 | 2.6 | 0.00 | 0.00 | 0.00 | 89 | 1013.9 |
| 20260906012351 | 77 | 317 | 2.6 | 4.3 | 0.00 | 0.00 | 0.00 | 89 | 1014.0 |
| 20260906011850 | 77 | 295 | 2.6 | 2.6 | 0.00 | 0.00 | 0.00 | 89 | 1014.0 |
| 20260906011345 | 77 | 316 | 3.5 | 4.3 | 0.00 | 0.00 | 0.00 | 89 | 1014.0 |
| 20260906010841 | 78 | 293 | 1.7 | 1.7 | 0.00 | 0.00 | 0.00 | 89 | 1013.9 |
| 20260906010337 | 78 | 326 | 0.9 | 0.9 | 0.00 | 0.00 | 0.00 | 89 | 1013.8 |
| 20260906005832 | 77 | 314 | 1.7 | 1.7 | 0.00 | 0.00 | 0.00 | 89 | 1013.9 |
| 20260906005331 | 77 | 194 | 0.9 | 0.9 | 0.00 | 0.00 | 0.00 | 88 | 1013.9 |
| 20260906004830 | 77 | 218 | 0.9 | 0.9 | 0.00 | 0.00 | 0.00 | 88 | 1013.8 |
| 20260906004330 | 78 | 76 | 0.9 | 1.7 | 0.00 | 0.00 | 0.00 | 88 | 1013.8 |
| 20260906003825 | 78 | 98 | 0.9 | 1.7 | 0.00 | 0.00 | 0.00 | 88 | 1013.9 |
| 20260906003321 | 78 | 120 | 0.9 | 1.7 | 0.00 | 0.00 | 0.00 | 88 | 1013.7 |
| 20260906002816 | 77 | 54 | 1.7 | 1.7 | 0.00 | 0.00 | 0.00 | 88 | 1013.7 |
| 20260906002315 | 78 | 123 | 1.7 | 1.7 | 0.00 | 0.00 | 0.00 | 88 | 1013.9 |
| 20260906001811 | 77 | 322 | 0.9 | 1.7 | 0.00 | 0.00 | 0.00 | 88 | 1013.7 |
| 20260906001306 | 77 | 298 | 1.7 | 2.6 | 0.00 | 0.00 | 0.00 | 87 | 1013.8 |
| 20260906000801 | 77 | 175 | 0.9 | 0.9 | 0.00 | 0.00 | 0.00 | 87 | 1013.7 |
| 20260906000256 | 78 | 156 | 0.9 | 0.9 | 0.00 | 0.00 | 0.00 | 87 | 1014.0 |
| 20260905235751 | 78 | 120 | 0.9 | 0.9 | 0.00 | 0.00 | 0.00 | 87 | 1013.9 |
| 20260905235250 | 78 | 111 | 0.9 | 0.9 | 0.00 | 0.00 | 0.00 | 86 | 1014.1 |
| 20260905234746 | 78 | 137 | 0.0 | 0.9 | 0.00 | 0.00 | 0.00 | 86 | 1013.8 |
| 20260905234241 | 78 | 121 | 0.9 | 0.9 | 0.00 | 0.00 | 0.00 | 86 | 1013.9 |
| 20260905233736 | 78 | 124 | 0.0 | 0.9 | 0.00 | 0.00 | 0.00 | 86 | 1013.9 |
| 20260905233236 | 78 | 122 | 0.0 | 0.9 | 0.00 | 0.00 | 0.00 | 86 | 1014.0 |
| 20260905232730 | 78 | 103 | 0.9 | 0.9 | 0.00 | 0.00 | 0.00 | 86 | 1014.1 |
| 20260905232226 | 78 | 99 | 0.9 | 0.9 | 0.00 | 0.00 | 0.00 | 86 | 1014.0 |
| 20260905231722 | 78 | 123 | 0.9 | 0.9 | 0.00 | 0.00 | 0.00 | 85 | 1014.1 |
| 20260905231217 | 78 | 123 | 0.0 | 0.9 | 0.00 | 0.00 | 0.00 | 85 | 1014.0 |
| 20260905230713 | 78 | 113 | 0.9 | 0.9 | 0.00 | 0.00 | 0.00 | 85 | 1013.8 |
| 20260905230211 | 78 | 95 | 0.9 | 0.9 | 0.00 | 0.00 | 0.00 | 85 | 1013.8 |
| 20260905225710 | 78 | 85 | 0.9 | 0.9 | 0.00 | 0.00 | 0.00 | 84 | 1013.9 |
| 20260905225206 | 78 | 99 | 0.9 | 0.9 | 0.00 | 0.00 | 0.00 | 84 | 1014.1 |
| 20260905224705 | 78 | 117 | 0.9 | 0.9 | 0.00 | 0.00 | 0.00 | 84 | 1013.9 |
| 20260905224200 | 78 | 48 | 0.9 | 2.6 | 0.00 | 0.00 | 0.00 | 83 | 1014.1 |
| 20260905223656 | 79 | 99 | 0.9 | 0.9 | 0.00 | 0.00 | 0.00 | 82 | 1014.0 |
| 20260905223153 | 79 | 133 | 0.0 | 0.9 | 0.00 | 0.00 | 0.00 | 83 | 1014.2 |
| 20260905222648 | 79 | 133 | 0.9 | 0.9 | 0.00 | 0.00 | 0.00 | 83 | 1014.4 |
| 20260905222148 | 78 | 115 | 0.9 | 0.9 | 0.00 | 0.00 | 0.00 | 83 | 1014.3 |
| 20260905221644 | 79 | 104 | 0.9 | 0.9 | 0.00 | 0.00 | 0.00 | 83 | 1014.3 |
| 20260905221141 | 78 | 125 | 0.9 | 0.9 | 0.00 | 0.00 | 0.00 | 83 | 1014.4 |
| 20260905220636 | 78 | 92 | 0.9 | 1.7 | 0.00 | 0.00 | 0.00 | 83 | 1014.3 |
| 20260905220132 | 79 | 93 | 0.9 | 0.9 | 0.00 | 0.00 | 0.00 | 83 | 1014.4 |
| 20260905215631 | 79 | 116 | 0.9 | 1.7 | 0.00 | 0.00 | 0.00 | 83 | 1014.4 |
| 20260905215127 | 79 | 101 | 0.9 | 1.7 | 0.00 | 0.00 | 0.00 | 83 | 1014.3 |
| 20260905214623 | 78 | 137 | 0.0 | 0.9 | 0.00 | 0.00 | 0.00 | 83 | 1014.1 |
| 20260905214123 | 79 | 96 | 0.9 | 1.7 | 0.00 | 0.00 | 0.00 | 83 | 1014.3 |
| 20260905213618 | 79 | 48 | 0.9 | 1.7 | 0.00 | 0.00 | 0.00 | 83 | 1014.3 |
| 20260905213114 | 79 | 97 | 0.9 | 0.9 | 0.00 | 0.00 | 0.00 | 83 | 1014.1 |
| 20260905212609 | 79 | 78 | 1.7 | 1.7 | 0.00 | 0.00 | 0.00 | 83 | 1014.4 |
| 20260905212108 | 79 | 117 | 0.9 | 1.7 | 0.00 | 0.00 | 0.00 | 83 | 1014.3 |
| 20260905211603 | 79 | 106 | 0.0 | 0.0 | 0.00 | 0.00 | 0.00 | 83 | 1014.3 |
| 20260905211059 | 79 | 144 | 0.0 | 0.0 | 0.00 | 0.00 | 0.00 | 83 | 1014.5 |
| 20260905210555 | 79 | 156 | 0.0 | 0.0 | 0.00 | 0.00 | 0.00 | 83 | 1014.4 |
| 20260905210050 | 79 | 160 | 0.0 | 0.9 | 0.00 | 0.00 | 0.00 | 83 | 1014.6 |
| 20260905205549 | 79 | 178 | 0.9 | 1.7 | 0.00 | 0.00 | 0.00 | 83 | 1014.7 |
| 20260905205048 | 79 | 159 | 0.0 | 0.9 | 0.00 | 0.00 | 0.00 | 82 | 1014.5 |
| 20260905204543 | 79 | 151 | 0.0 | 0.9 | 0.00 | 0.00 | 0.00 | 82 | 1014.6 |
| 20260905204038 | 80 | 185 | 0.9 | 0.9 | 0.00 | 0.00 | 0.00 | 82 | 1014.4 |
| 20260905203538 | 80 | 155 | 0.0 | 0.0 | 0.00 | 0.00 | 0.00 | 82 | 1014.7 |
| 20260905203034 | 79 | 160 | 0.0 | 0.9 | 0.00 | 0.00 | 0.00 | 82 | 1014.5 |
| 20260905202529 | 79 | 183 | 0.9 | 1.7 | 0.00 | 0.00 | 0.00 | 82 | 1014.5 |
| 20260905202024 | 79 | 277 | 1.7 | 2.6 | 0.00 | 0.00 | 0.00 | 82 | 1014.7 |
| 20260905201520 | 79 | 306 | 1.7 | 2.6 | 0.00 | 0.00 | 0.00 | 82 | 1014.9 |
| 20260905201019 | 79 | 275 | 2.6 | 2.6 | 0.00 | 0.00 | 0.00 | 82 | 1014.7 |
| 20260905200515 | 79 | 276 | 1.7 | 2.6 | 0.00 | 0.00 | 0.00 | 82 | 1014.5 |
| 20260905200014 | 80 | 295 | 1.7 | 2.6 | 0.00 | 0.00 | 0.00 | 82 | 1014.5 |
| 20260905195508 | 80 | 243 | 0.9 | 2.6 | 0.00 | 0.00 | 0.00 | 82 | 1014.4 |
| 20260905195004 | 80 | 291 | 2.6 | 2.6 | 0.00 | 0.00 | 0.00 | 81 | 1014.7 |
| 20260905194458 | 80 | 193 | 2.6 | 4.3 | 0.00 | 0.00 | 0.00 | 81 | 1014.7 |
| 20260905193958 | 80 | 232 | 2.6 | 2.6 | 0.00 | 0.00 | 0.00 | 81 | 1014.6 |
| 20260905193452 | 80 | 278 | 3.5 | 5.2 | 0.00 | 0.00 | 0.00 | 81 | 1014.5 |
| 20260905192947 | 80 | 286 | 3.5 | 4.3 | 0.00 | 0.00 | 0.00 | 80 | 1014.4 |
| 20260905192442 | 80 | 292 | 4.3 | 5.2 | 0.00 | 0.00 | 0.00 | 80 | 1014.7 |
| 20260905191938 | 80 | 267 | 3.5 | 5.2 | 0.00 | 0.00 | 0.00 | 80 | 1014.5 |
| 20260905191432 | 81 | 227 | 0.0 | 6.1 | 0.00 | 0.00 | 0.00 | 80 | 1014.6 |
| 20260905190931 | 81 | 206 | 1.7 | 5.2 | 0.00 | 0.00 | 0.00 | 79 | 1014.3 |
| 20260905190429 | 81 | 275 | 3.5 | 4.3 | 0.00 | 0.00 | 0.00 | 79 | 1014.7 |
| 20260905185928 | 81 | 273 | 2.6 | 4.3 | 0.00 | 0.00 | 0.00 | 78 | 1014.4 |
| 20260905185423 | 81 | 175 | 1.7 | 2.6 | 0.00 | 0.00 | 0.00 | 78 | 1014.7 |
| 20260905184922 | 81 | 197 | 3.5 | 5.2 | 0.00 | 0.00 | 0.00 | 79 | 1014.7 |
| 20260905184417 | 81 | 236 | 5.2 | 6.1 | 0.00 | 0.00 | 0.00 | 79 | 1014.7 |
| 20260905183915 | 81 | 227 | 4.3 | 6.1 | 0.00 | 0.00 | 0.00 | 81 | 1014.6 |
| 20260905183410 | 81 | 288 | 3.5 | 7.0 | 0.00 | 0.00 | 0.00 | 84 | 1014.8 |
| 20260905182905 | 81 | 205 | 1.7 | 2.6 | 0.00 | 0.00 | 0.00 | 85 | 1014.8 |
| 20260905182405 | 81 | 232 | 1.7 | 5.2 | 0.00 | 0.00 | 0.00 | 85 | 1014.6 |
| 20260905181901 | 82 | 236 | 5.2 | 7.0 | 0.00 | 0.00 | 0.00 | 85 | 1014.9 |
| 20260905181401 | 82 | 221 | 2.6 | 5.2 | 0.00 | 0.00 | 0.00 | 85 | 1014.4 |
| 20260905180859 | 81 | 241 | 6.1 | 7.0 | 0.00 | 0.00 | 0.00 | 85 | 1014.6 |
| 20260905180355 | 82 | 215 | 3.5 | 6.1 | 0.00 | 0.00 | 0.00 | 85 | 1014.5 |
| 20260905175849 | 81 | 215 | 6.1 | 9.6 | 0.00 | 0.00 | 0.00 | 85 | 1014.7 |
| 20260905175344 | 82 | 236 | 7.0 | 7.8 | 0.00 | 0.00 | 0.00 | 84 | 1014.8 |
| 20260905174839 | 81 | 233 | 7.8 | 8.7 | 0.00 | 0.00 | 0.00 | 84 | 1014.7 |
| 20260905174335 | 81 | 226 | 7.8 | 8.7 | 0.00 | 0.00 | 0.00 | 84 | 1014.7 |
| 20260905173830 | 81 | 215 | 4.3 | 7.8 | 0.00 | 0.00 | 0.00 | 84 | 1014.7 |
| 20260905173326 | 81 | 238 | 5.2 | 9.6 | 0.00 | 0.00 | 0.00 | 84 | 1014.6 |
| 20260905172826 | 81 | 198 | 4.3 | 7.8 | 0.00 | 0.00 | 0.00 | 84 | 1014.5 |
| 20260905172324 | 82 | 227 | 6.1 | 8.7 | 0.00 | 0.00 | 0.00 | 83 | 1014.7 |
| 20260905171821 | 82 | 204 | 5.2 | 7.8 | 0.00 | 0.00 | 0.00 | 83 | 1014.8 |
| 20260905171317 | 81 | 202 | 7.8 | 7.8 | 0.00 | 0.00 | 0.00 | 83 | 1014.6 |
| 20260905170813 | 82 | 216 | 5.2 | 6.1 | 0.00 | 0.00 | 0.00 | 82 | 1014.7 |
| 20260905170309 | 82 | 210 | 7.0 | 7.8 | 0.00 | 0.00 | 0.00 | 82 | 1014.6 |
| 20260905165808 | 82 | 194 | 8.7 | 9.6 | 0.00 | 0.00 | 0.00 | 82 | 1014.5 |
| 20260905165306 | 82 | 211 | 8.7 | 9.6 | 0.00 | 0.00 | 0.00 | 82 | 1014.5 |
| 20260905164804 | 82 | 218 | 7.8 | 8.7 | 0.00 | 0.00 | 0.00 | 82 | 1014.3 |
| 20260905164258 | 82 | 198 | 4.3 | 7.8 | 0.00 | 0.00 | 0.00 | 83 | 1014.2 |
| 20260905163754 | 82 | 206 | 6.1 | 7.0 | 0.00 | 0.00 | 0.00 | 82 | 1014.2 |
| 20260905163250 | 82 | 220 | 5.2 | 7.0 | 0.00 | 0.00 | 0.00 | 81 | 1014.2 |
| 20260905162746 | 82 | 206 | 4.3 | 7.8 | 0.00 | 0.00 | 0.00 | 81 | 1014.1 |
| 20260905162245 | 81 | 200 | 4.3 | 6.1 | 0.00 | 0.00 | 0.00 | 81 | 1014.1 |
| 20260905161740 | 82 | 218 | 4.3 | 8.7 | 0.00 | 0.00 | 0.00 | 81 | 1014.1 |
| 20260905161239 | 82 | 206 | 5.2 | 11.3 | 0.00 | 0.00 | 0.00 | 82 | 1014.1 |
| 20260905160738 | 82 | 202 | 4.3 | 7.0 | 0.00 | 0.00 | 0.00 | 81 | 1014.0 |
| 20260905160237 | 82 | 191 | 7.0 | 7.8 | 0.00 | 0.00 | 0.00 | 80 | 1014.1 |
| 20260905155732 | 82 | 190 | 4.3 | 7.8 | 0.00 | 0.00 | 0.00 | 80 | 1014.1 |
| 20260905155231 | 82 | 204 | 7.0 | 11.3 | 0.00 | 0.00 | 0.00 | 81 | 1014.1 |
| 20260905154725 | 82 | 205 | 7.0 | 8.7 | 0.00 | 0.00 | 0.00 | 81 | 1014.2 |
| 20260905154221 | 82 | 209 | 5.2 | 7.8 | 0.00 | 0.00 | 0.00 | 80 | 1014.1 |
| 20260905153717 | 82 | 214 | 6.1 | 12.2 | 0.00 | 0.00 | 0.00 | 80 | 1014.3 |
| 20260905153212 | 82 | 196 | 4.3 | 9.6 | 0.00 | 0.00 | 0.00 | 79 | 1014.2 |
| 20260905152707 | 82 | 197 | 6.1 | 12.2 | 0.00 | 0.00 | 0.00 | 78 | 1014.2 |
| 20260905152202 | 83 | 223 | 6.1 | 7.8 | 0.00 | 0.00 | 0.00 | 79 | 1014.3 |
| 20260905151701 | 83 | 200 | 8.7 | 12.2 | 0.00 | 0.00 | 0.00 | 78 | 1014.1 |
| 20260905151157 | 83 | 245 | 6.1 | 9.6 | 0.00 | 0.00 | 0.00 | 78 | 1014.0 |
| 20260905150652 | 83 | 206 | 7.8 | 12.2 | 0.00 | 0.00 | 0.00 | 78 | 1014.3 |
| 20260905150150 | 83 | 223 | 7.8 | 12.2 | 0.00 | 0.00 | 0.00 | 77 | 1014.4 |
| 20260905145648 | 83 | 186 | 7.8 | 9.6 | 0.00 | 0.00 | 0.00 | 78 | 1014.2 |
| 20260905145143 | 83 | 179 | 6.1 | 11.3 | 0.00 | 0.00 | 0.00 | 78 | 1014.0 |
| 20260905144637 | 84 | 208 | 11.3 | 13.9 | 0.00 | 0.00 | 0.00 | 77 | 1014.2 |
| 20260905144137 | 84 | 195 | 6.1 | 12.2 | 0.00 | 0.00 | 0.00 | 78 | 1014.4 |
| 20260905143631 | 84 | 206 | 11.3 | 13.0 | 0.00 | 0.00 | 0.00 | 77 | 1014.1 |
| 20260905143126 | 84 | 169 | 7.8 | 11.3 | 0.00 | 0.00 | 0.00 | 77 | 1013.9 |
| 20260905142625 | 84 | 221 | 10.4 | 11.3 | 0.00 | 0.00 | 0.00 | 78 | 1014.1 |
| 20260905142124 | 83 | 177 | 10.4 | 12.2 | 0.00 | 0.00 | 0.00 | 77 | 1014.0 |
| 20260905141619 | 84 | 212 | 12.2 | 13.9 | 0.00 | 0.00 | 0.00 | 76 | 1014.3 |
| 20260905141115 | 84 | 192 | 7.8 | 12.2 | 0.00 | 0.00 | 0.00 | 77 | 1014.0 |
| 20260905140610 | 84 | 192 | 10.4 | 13.0 | 0.00 | 0.00 | 0.00 | 76 | 1014.2 |
| 20260905140109 | 84 | 159 | 9.6 | 13.0 | 0.00 | 0.00 | 0.00 | 76 | 1014.2 |
| 20260905135605 | 85 | 178 | 8.7 | 9.6 | 0.00 | 0.00 | 0.00 | 75 | 1014.1 |
| 20260905135100 | 84 | 185 | 11.3 | 13.9 | 0.00 | 0.00 | 0.00 | 76 | 1014.2 |
| 20260905134555 | 85 | 196 | 11.3 | 13.9 | 0.00 | 0.00 | 0.00 | 74 | 1014.1 |
| 20260905134053 | 84 | 171 | 9.6 | 13.0 | 0.00 | 0.00 | 0.00 | 76 | 1014.2 |
| 20260905133549 | 85 | 211 | 7.8 | 13.0 | 0.00 | 0.00 | 0.00 | 75 | 1014.3 |
| 20260905133049 | 85 | 193 | 9.6 | 12.2 | 0.00 | 0.00 | 0.00 | 76 | 1014.5 |
| 20260905132549 | 85 | 192 | 10.4 | 13.0 | 0.00 | 0.00 | 0.00 | 74 | 1014.4 |
| 20260905132043 | 85 | 216 | 9.6 | 13.9 | 0.00 | 0.00 | 0.00 | 75 | 1014.5 |
| 20260905131539 | 84 | 201 | 11.3 | 14.8 | 0.00 | 0.00 | 0.00 | 75 | 1014.3 |
| 20260905131034 | 85 | 233 | 7.0 | 11.3 | 0.00 | 0.00 | 0.00 | 74 | 1014.4 |
| 20260905130533 | 86 | 226 | 8.7 | 12.2 | 0.00 | 0.00 | 0.00 | 73 | 1014.4 |
| 20260905130028 | 85 | 186 | 11.3 | 12.2 | 0.00 | 0.00 | 0.00 | 73 | 1014.4 |
| 20260905125528 | 85 | 194 | 10.4 | 13.0 | 0.00 | 0.00 | 0.00 | 73 | 1014.4 |
| 20260905125023 | 85 | 207 | 10.4 | 13.0 | 0.00 | 0.00 | 0.00 | 74 | 1014.4 |
| 20260905124520 | 86 | 199 | 9.6 | 13.0 | 0.00 | 0.00 | 0.00 | 74 | 1014.4 |
| 20260905124015 | 85 | 198 | 9.6 | 13.0 | 0.00 | 0.00 | 0.00 | 74 | 1014.5 |
| 20260905123511 | 86 | 202 | 9.6 | 12.2 | 0.00 | 0.00 | 0.00 | 73 | 1014.5 |